Theta_e
281 281 281 281 282 282 281 281 281 282 282 282 281 281 282 282 283 284 285 287 287 288 290 290 291 295 298 301 301 301 300 301 299 296 292 293 293 294 293 293 292 292 293
280 281 281 281 281 280 280 281 281 280 281 280 280 280 280 281 282 282 284 286 286 286 287 288 289 292 294 298 301 299 299 300 299 298 289 290 291 293 292 291 291 291 290
280 280 281 281 280 280 280 281 280 280 279 279 280 279 279 279 280 282 283 285 286 286 287 287 288 289 290 294 297 299 299 299 298 297 288 291 290 292 289 290 289 287 288
280 280 280 281 281 280 280 280 280 279 278 279 279 278 278 279 281 281 283 284 285 287 287 287 288 289 289 292 293 297 298 297 296 294 290 289 290 290 290 286 284 285 283
279 280 280 281 280 280 279 279 279 278 279 278 278 277 278 279 280 281 283 283 284 286 287 287 288 289 288 290 291 292 296 295 294 292 289 287 287 286 286 286 284 283 281
279 280 281 280 280 279 278 278 277 278 277 277 276 276 277 279 282 283 283 282 284 285 285 286 287 287 288 290 292 293 294 294 292 292 290 288 287 287 287 285 283 281 279
279 280 280 279 278 277 277 276 276 276 275 275 275 275 276 277 281 283 283 282 283 285 285 285 285 288 288 289 290 292 293 294 295 293 290 289 288 287 286 285 284 283 281
279 278 277 277 276 276 275 275 275 274 273 273 273 274 276 277 280 282 283 282 283 283 284 285 285 286 288 288 290 291 292 293 293 294 293 291 291 289 288 287 285 279 277
273 273 275 275 274 273 273 273 273 272 272 272 274 273 273 274 279 282 282 281 281 281 283 285 286 286 286 287 287 288 289 289 293 294 294 293 292 291 289 284 280 281 276
272 272 272 272 272 270 270 270 272 272 272 273 273 273 273 274 278 281 281 281 279 280 283 285 285 286 287 287 286 287 286 286 287 287 288 290 290 289 288 287 284 282 276
270 269 269 269 269 269 269 270 270 270 270 269 270 271 272 275 275 280 281 280 280 280 280 282 284 287 288 288 288 286 286 287 286 285 285 285 284 284 284 284 285 284 279
268 267 266 267 267 268 268 268 269 269 268 268 268 270 272 274 277 279 280 281 281 279 279 282 284 287 288 288 287 288 289 287 284 282 280 280 279 277 277 277 275 274 275
265 264 265 266 267 268 267 267 267 267 266 267 269 269 270 273 274 278 279 280 280 279 280 281 285 286 287 287 288 288 285 284 281 279 278 277 276 274 273 272 271 271 270
262 263 264 265 265 266 266 267 266 265 266 267 268 269 270 271 272 275 276 277 278 278 279 280 283 286 287 286 284 286 284 283 281 280 277 273 273 273 272 273 272 272 270
262 263 264 264 264 264 265 265 266 268 269 269 270 270 270 270 272 277 277 276 276 278 279 280 281 283 283 283 283 284 283 282 281 277 274 273 273 273 272 273 273 272 270
260 262 261 261 262 262 263 263 267 269 271 272 273 273 272 274 276 277 277 278 279 279 277 278 281 282 282 282 282 282 282 281 279 277 275 274 273 272 272 272 273 272 270
257 258 259 260 260 260 261 261 260 263 268 269 270 272 272 273 274 274 276 277 276 276 274 276 282 282 282 282 282 281 281 281 279 278 275 274 274 273 272 272 273 272 270
252 255 257 258 259 259 259 259 260 259 259 260 265 268 270 270 271 273 273 271 264 267 268 271 272 282 282 282 282 281 281 280 279 278 276 275 274 273 273 273 274 272 270
254 255 256 256 257 257 257 257 258 258 258 259 260 262 263 266 269 269 268 260 261 262 264 267 269 270 282 282 282 281 281 280 279 278 277 276 275 274 274 274 274 272 270
250 253 255 254 255 255 255 256 256 256 257 257 257 257 258 262 260 258 258 259 259 260 262 263 266 268 271 283 282 282 281 280 279 278 277 276 276 276 274 274 274 271 270
249 251 252 252 252 254 255 254 254 255 255 255 256 257 265 261 256 256 256 257 258 258 260 261 263 266 268 277 283 282 281 280 280 279 278 277 277 276 276 275 273 273 269
246 247 247 248 251 251 252 252 252 252 253 253 254 255 262 254 254 255 255 256 257 258 259 261 262 264 267 268 281 282 281 281 280 279 278 278 277 276 276 274 272 270 268
245 244 246 247 248 249 249 250 248 249 250 251 252 253 253 253 254 254 255 256 257 257 259 261 262 264 267 269 279 284 282 281 281 280 278 277 276 275 275 272 271 269 268
243 243 243 245 245 247 247 247 247 248 249 250 251 252 253 253 253 254 255 256 257 258 259 261 263 265 266 269 271 285 285 284 283 281 279 278 276 274 273 271 270 269 268
242 243 244 244 244 246 247 248 246 246 247 248 250 252 253 253 254 255 256 257 258 259 261 262 265 266 267 268 269 283 284 283 282 281 279 278 275 274 273 271 270 268 267
243 244 245 245 246 245 245 247 247 246 246 247 250 252 253 254 255 256 257 258 259 260 261 265 266 267 268 270 274 284 283 282 280 279 278 277 274 273 272 270 269 267 267
Wind_Speed
7 6 7 7 7 7 7 9 10 12 12 13 13 14 14 14 14 12 13 16 17 16 13 13 18 17 12 10 7 8 8 10 11 3 1 3 10 12 11 11 10 8 7
7 6 7 7 6 7 9 10 10 11 11 12 13 13 14 14 13 13 14 14 16 18 17 15 16 13 17 15 10 11 10 10 9 14 3 5 5 10 10 11 8 7 7
6 6 7 7 6 7 9 10 11 11 12 12 12 13 14 14 14 13 13 14 14 17 18 17 15 16 17 13 14 11 10 9 9 8 4 3 3 9 10 7 7 7 5
6 7 8 8 7 8 9 10 11 11 12 12 12 13 14 14 14 14 13 16 16 15 18 18 16 16 18 16 14 15 11 9 9 8 5 5 5 8 10 11 8 4 6
7 7 9 8 7 7 10 11 12 12 11 12 13 14 13 12 10 13 17 18 18 18 17 19 18 17 23 21 14 15 13 11 9 10 7 5 6 9 13 8 7 8 4
7 9 9 7 7 9 11 12 13 13 12 13 13 13 15 11 22 25 22 17 17 18 17 19 19 19 19 24 25 26 22 12 12 11 11 12 14 11 11 10 8 8 5
7 9 7 7 9 11 12 12 13 13 13 13 13 13 14 16 25 26 27 16 16 16 19 18 19 13 16 17 21 24 22 25 25 14 14 13 13 15 14 14 12 8 3
7 6 6 8 10 12 13 13 13 12 13 12 12 13 14 14 26 26 27 18 15 17 18 17 19 19 16 17 16 16 15 14 18 14 16 15 15 16 17 13 12 8 6
4 5 7 9 12 13 13 14 13 13 13 13 12 13 15 16 26 27 23 16 16 19 16 17 17 18 23 26 17 16 14 12 13 19 15 14 18 25 19 13 11 11 4
4 7 9 8 11 12 13 14 12 12 13 12 15 13 15 16 23 25 22 11 14 14 16 16 23 18 22 25 15 15 13 9 7 6 7 13 18 19 27 15 13 12 6
6 7 8 8 10 11 12 11 12 13 13 13 13 13 14 13 16 24 25 14 11 13 13 15 14 24 22 24 24 13 12 8 11 8 7 6 7 10 7 8 10 11 7
6 8 9 9 8 9 11 11 12 12 12 12 12 12 9 11 17 20 26 25 25 14 15 14 16 24 25 24 20 17 13 11 6 7 7 6 7 6 5 8 10 8 6
5 7 8 9 9 9 11 11 11 10 9 10 10 10 12 11 11 23 24 28 29 19 14 23 33 32 24 19 19 14 11 7 7 7 7 5 3 6 9 9 11 12 12
7 8 8 9 10 9 8 8 8 9 9 9 10 11 12 12 12 11 12 14 20 18 23 18 24 26 21 16 5 8 6 6 7 7 6 6 7 5 7 5 8 8 7
7 7 8 7 9 10 9 9 9 10 11 11 10 11 12 13 12 25 23 16 16 20 24 15 14 7 7 3 3 4 3 5 5 6 7 7 7 5 6 6 7 5 5
7 7 7 8 8 8 9 11 15 19 21 22 23 18 12 23 29 31 32 32 32 33 15 13 12 7 7 3 3 3 3 5 5 7 7 8 8 7 6 6 5 4 9
5 8 7 8 7 8 9 9 13 14 18 19 21 23 24 25 28 29 30 31 30 24 10 12 11 8 6 3 3 3 3 4 7 7 8 8 8 7 8 8 6 7 8
4 7 6 6 7 7 8 9 8 9 15 11 13 20 22 26 28 27 29 24 13 11 9 10 12 11 5 3 3 3 4 5 6 7 8 8 8 9 8 8 7 9 9
4 4 5 6 6 7 8 8 8 9 9 11 12 15 14 25 24 24 22 7 10 11 11 11 11 12 8 3 3 4 6 6 6 6 6 7 8 8 8 7 6 9 9
3 6 6 6 7 7 6 7 8 8 9 9 9 10 12 13 12 12 9 9 8 9 10 11 11 11 13 5 4 5 5 6 6 7 7 7 7 7 8 9 8 8 6
2 4 6 5 5 6 6 6 7 8 8 8 9 10 24 12 10 10 10 9 9 10 11 11 11 11 10 13 5 5 6 6 7 7 7 7 8 8 7 8 8 7 7
2 3 3 4 5 6 6 6 6 7 8 9 9 10 23 8 8 9 10 10 10 10 9 11 11 11 11 10 9 6 7 7 7 8 8 7 7 7 8 8 9 8 8
2 3 4 4 4 5 5 5 5 6 7 8 9 9 9 9 9 10 11 11 10 11 10 10 11 12 11 10 13 7 7 8 8 9 9 8 7 7 8 8 9 9 9
2 3 3 4 4 4 4 6 6 7 8 8 8 8 9 9 11 12 12 11 11 12 11 11 11 15 14 13 12 7 6 7 8 10 13 10 8 10 8 9 9 10 9
2 3 3 3 4 4 6 5 5 6 7 7 8 8 9 9 10 11 11 11 12 12 14 13 11 14 16 19 17 12 9 12 10 12 9 11 11 13 10 8 10 9 9
3 3 3 3 3 3 3 5 6 6 7 8 8 9 10 10 11 11 12 12 12 14 16 12 14 19 20 16 19 13 12 14 13 15 10 10 11 9 9 10 14 9 11
Wind_Direction
286 292 297 300 303 300 300 304 308 309 311 313 313 312 312 312 313 310 308 311 315 313 308 308 307 304 296 286 248 237 229 235 246 251 325 135 202 187 174 182 170 164 169
272 273 279 286 292 299 304 307 307 305 308 308 308 307 307 309 308 307 306 310 310 314 312 305 302 301 297 291 273 242 230 230 225 248 211 155 198 194 171 169 159 160 154
278 282 285 285 284 288 300 305 307 305 306 305 303 306 306 306 304 302 301 302 307 307 306 301 297 298 292 291 284 259 240 230 215 219 201 162 142 170 159 158 153 137 142
290 283 284 287 286 291 296 301 302 304 301 299 302 301 301 297 299 301 302 307 303 300 304 298 292 289 287 287 286 274 251 231 210 203 194 177 180 170 167 161 153 161 137
282 288 283 282 287 292 299 304 304 304 298 300 301 300 297 295 296 307 308 307 304 301 300 299 292 284 283 275 277 280 266 234 218 207 200 164 175 171 185 169 164 152 134
284 285 289 291 300 301 304 307 306 303 305 305 301 300 301 298 303 307 309 303 300 298 298 301 297 286 280 278 274 269 259 240 224 211 201 197 191 181 164 165 158 168 173
281 288 292 307 306 305 306 305 304 304 304 301 300 302 303 300 305 309 311 304 298 294 302 301 300 290 283 281 279 272 254 249 227 209 206 206 189 178 161 165 170 176 158
291 301 313 311 306 306 306 304 305 303 300 298 297 296 297 297 304 309 314 308 302 300 301 298 298 289 283 286 283 272 261 248 235 219 213 208 198 175 173 165 157 115 83
297 303 311 311 307 307 305 306 304 302 300 297 293 298 296 295 303 309 316 313 305 306 303 301 299 287 286 288 289 273 264 246 236 226 212 186 177 171 159 135 158 151 126
313 309 306 303 302 301 302 301 300 297 294 298 299 296 290 293 300 310 317 311 305 307 302 305 301 285 277 286 287 277 254 222 188 159 159 164 169 168 164 168 162 165 128
306 298 302 300 298 294 295 298 300 298 298 296 294 297 292 293 298 307 318 312 307 308 309 305 303 300 286 289 287 279 236 199 191 170 159 155 157 156 157 144 165 161 143
306 303 300 300 297 298 297 299 300 299 297 299 303 301 301 302 299 312 314 318 316 311 303 301 299 301 292 291 290 269 237 177 163 152 148 149 147 133 118 105 94 85 64
308 299 299 302 301 303 305 304 305 304 300 302 303 308 307 308 308 312 314 317 317 314 308 304 306 304 296 290 277 239 188 168 160 157 153 139 119 113 104 90 88 91 73
302 303 306 308 311 310 306 300 298 301 300 302 303 302 307 308 310 314 313 315 316 315 314 306 299 294 286 276 247 215 178 171 170 156 133 103 110 124 124 137 123 115 98
310 309 310 311 312 309 303 302 300 294 294 298 304 305 309 308 312 312 316 318 313 306 311 302 297 286 278 247 211 187 145 145 146 121 131 127 128 132 131 132 122 127 120
312 315 315 311 313 309 309 309 306 305 306 306 305 307 307 308 312 317 320 314 315 317 304 294 289 284 270 238 200 166 146 150 135 131 131 141 143 143 139 121 118 135 132
300 308 308 307 308 312 314 314 316 316 310 311 313 318 318 317 323 321 320 325 321 325 316 318 304 286 267 230 189 171 164 148 135 142 142 147 147 139 147 143 146 145 117
278 285 289 298 304 306 307 308 306 306 315 319 319 319 325 328 325 327 333 333 328 334 318 317 319 304 255 220 184 160 135 140 151 147 146 153 152 153 150 159 164 136 132
303 301 302 299 296 297 299 299 299 300 299 302 314 319 325 325 323 334 334 325 317 316 319 315 318 319 282 220 187 159 156 156 152 145 148 155 154 159 156 154 147 131 135
264 276 294 300 305 304 300 302 308 307 305 306 310 312 319 314 336 330 325 318 312 307 310 309 310 310 316 250 197 177 167 157 154 149 148 153 155 159 160 153 151 152 149
283 299 300 303 295 299 303 302 305 307 306 305 302 307 319 335 313 308 310 312 309 307 306 304 305 303 300 302 206 187 180 171 166 159 158 159 159 160 151 150 145 153 134
276 290 299 291 298 306 305 302 307 304 304 305 307 309 325 316 307 307 306 306 304 299 296 296 297 295 297 294 273 194 189 182 169 157 156 155 154 154 150 147 143 142 139
317 309 306 300 290 297 308 309 302 308 308 307 308 311 318 315 312 309 307 306 305 303 301 296 295 295 294 286 289 205 193 184 171 159 158 155 154 151 149 147 144 145 154
308 292 291 295 308 304 305 311 314 311 310 309 310 310 310 309 308 307 304 305 305 303 300 297 293 290 293 294 298 231 195 182 170 167 157 158 158 156 154 148 150 156 147
306 302 301 293 302 301 313 315 308 311 311 307 312 311 309 309 307 308 308 308 307 305 307 303 298 297 296 295 289 248 186 172 165 157 152 153 158 159 154 147 146 143 139
302 298 290 297 298 287 293 315 316 314 313 312 311 308 308 310 309 311 312 312 312 312 306 305 304 304 303 296 283 218 174 168 161 157 151 151 152 151 148 143 144 141 146